This demonstration page uses our WeatherBlox Daily Observations layout. Learn more.

Hourly Observations for October 26, 2015

Temp ( °F °C ) Dew Point ( °F °C ) Humidity (%) Winds ( mph kmh ) Pressure ( in mb ) Visibility ( mi km ) Precip ( " mm )
12:15 am 00:15 Clear 45 7 34 0.9 65 65 S 7 11 30.21 1023 10 16.0934 0 0
12:35 am 00:35 Clear 44 6.9 33 0.8 65 65 S 7 11 30.21 1023 10 16.0934 0 0
12:55 am 00:55 Clear 44 6.7 33 0.7 66 66 S 7 11 30.21 1023 10 16.0934 0 0
1:15 am 01:15 Clear 45 7 33 0.7 65 65 S 7 11 30.21 1023 10 16.0934 0 0
1:35 am 01:35 Clear 44 6.9 33 0.7 65 65 S 8 13 30.21 1023 10 16.0934 0 0
1:55 am 01:55 Clear 45 7 33 0.7 65 65 S 9 15 30.21 1023 10 16.0934 0 0
2:15 am 02:15 Clear 45 7.1 33 0.7 64 64 S 8 13 30.21 1023 10 16.0934 0 0
2:35 am 02:35 Clear 45 7 33 0.6 64 64 S 8 13 30.21 1023 10 16.0934 0 0
2:55 am 02:55 Clear 44 6.5 33 0.5 66 66 S 6 9 30.21 1023 10 16.0934 0 0
3:15 am 03:15 Clear 43 6.3 33 0.5 67 67 S 6 9 30.21 1023 10 16.0934 0 0
3:35 am 03:35 Clear 43 6 33 0.4 68 68 S 5 7 30.21 1023 10 16.0934 0 0
3:55 am 03:55 Clear 42 5.4 32 0.1 69 69 S 3 6 30.21 1023 10 16.0934 0 0
4:15 am 04:15 Clear 41 5.1 32 0.2 71 71 S 6 9 30.21 1023 10 16.0934 0 0
4:35 am 04:35 Clear 39 3.7 32 -0.1 76 76 S 5 7 30.24 1024 10 16.0934 0 0
4:55 am 04:55 Clear 39 4 32 0 75 75 S 6 9 30.24 1024 10 16.0934 0 0
5:15 am 05:15 Clear 40 4.6 32 0 72 72 S 7 11 30.21 1023 10 16.0934 0 0
5:35 am 05:35 Clear 40 4.3 32 0 74 74 S 6 9 30.24 1024 10 16.0934 0 0
5:55 am 05:55 Clear 40 4.4 32 0 73 73 S 6 9 30.24 1024 10 16.0934 0 0
6:15 am 06:15 Clear 39 4 32 0 75 75 S 5 7 30.18 1022 10 16.0934 0 0
6:35 am 06:35 Clear 38 3.5 32 0.1 79 79 SSE 5 7 30.18 1022 10 16.0934 0 0
6:55 am 06:55 Clear 40 4.3 33 0.3 75 75 S 3 6 30.24 1024 10 16.0934 0 0
7:15 am 07:15 Clear 41 4.8 33 0.3 73 73 S 6 9 30.21 1023 10 16.0934 0 0
7:35 am 07:35 Clear 42 5.3 33 0.5 71 71 SSE 6 9 30.21 1023 10 16.0934 0 0
7:55 am 07:55 Clear 42 5.5 33 0.7 72 72 SSE 7 11 30.18 1022 10 16.0934 0 0
8:15 am 08:15 Sunny 43 6.1 33 0.7 69 69 SSE 7 11 30.18 1022 10 16.0934 0 0
8:35 am 08:35 Sunny 44 6.5 34 1.1 69 69 SSE 6 9 30.18 1022 10 16.0934 0 0
8:55 am 08:55 Sunny 45 7.2 34 1 65 65 S 7 11 30.21 1023 10 16.0934 0 0
9:15 am 09:15 Sunny 46 7.5 34 1 64 64 SSE 9 15 30.15 1021 10 16.0934 0 0
9:35 am 09:35 Sunny 46 7.7 34 1.2 64 64 S 10 17 30.18 1022 10 16.0934 0 0
9:55 am 09:55 Sunny 47 8.6 35 1.5 61 61 S 7 11 30.18 1022 10 16.0934 0 0
10:15 am 10:15 Sunny 49 9.6 34 1.3 57 57 S 10 17 30.18 1022 10 16.0934 0 0
10:35 am 10:35 Sunny 50 10.2 34 1 53 53 S 14 22 30.18 1022 10 16.0934 0 0
10:55 am 10:55 Sunny 53 11.4 34 0.9 49 49 S 13 20 30.15 1021 10 16.0934 0 0
11:15 am 11:15 Sunny 53 11.9 33 0.8 47 47 S 13 20 30.15 1021 10 16.0934 0 0
11:35 am 11:35 Sunny 55 12.5 33 0.3 43 43 S 12 19 30.15 1021 10 16.0934 0 0
11:55 am 11:55 Sunny 55 13 33 0.3 42 42 S 14 22 30.12 1020 10 16.0934 0 0
12:15 pm 12:15 Sunny 56 13.6 33 0.5 41 41 S 15 24 30.09 1019 10 16.0934 0 0
12:35 pm 12:35 Sunny 56 13.6 32 0.1 40 40 S 15 24 30.09 1019 10 16.0934 0 0
12:55 pm 12:55 Sunny 57 13.9 33 0.8 41 41 SSE 15 24 30.09 1019 10 16.0934 0 0
1:15 pm 13:15 Sunny 57 13.9 33 0.4 40 40 SSE 15 24 30.09 1019 10 16.0934 0 0
1:35 pm 13:35 Sunny 58 14.7 31 -0.3 36 36 S 16 26 30.09 1019 10 16.0934 0 0
1:55 pm 13:55 Sunny 60 15.3 31 -0.8 33 33 SSE 15 24 30.09 1019 10 16.0934 0 0
2:15 pm 14:15 Sunny 59 15.1 28 -2.1 31 31 S 14 22 30.09 1019 10 16.0934 0 0
2:35 pm 14:35 Sunny 60 15.5 29 -1.5 31 31 S 13 20 30.06 1018 10 16.0934 0 0
2:55 pm 14:55 Sunny 60 15.3 29 -1.5 32 32 SSE 14 22 30.06 1018 10 16.0934 0 0
3:15 pm 15:15 Sunny 60 15.8 30 -1.1 32 32 SSE 14 22 30.03 1017 10 16.0934 0 0
3:35 pm 15:35 Sunny 61 16 29 -1.4 31 31 SSE 13 20 30.03 1017 10 16.0934 0 0
3:55 pm 15:55 Sunny 62 16.7 29 -1.8 28 28 SE 15 24 30 1016 10 16.0934 0 0
4:15 pm 16:15 Sunny 62 16.6 27 -2.9 26 26 SSE 14 22 30 1016 10 16.0934 0 0
4:35 pm 16:35 Sunny 62 16.6 27 -3 26 26 SE 15 24 30 1016 10 16.0934 0 0
4:55 pm 16:55 Sunny 61 16.2 27 -2.7 27 27 SE 14 22 30.03 1017 10 16.0934 0 0
5:15 pm 17:15 Sunny 61 16.1 27 -3 27 27 SE 15 24 30.03 1017 10 16.0934 0 0
5:35 pm 17:35 Sunny 60 15.8 25 -3.8 26 26 SE 15 24 30 1016 10 16.0934 0 0
5:55 pm 17:55 Sunny 59 14.8 27 -3 29 29 SE 16 26 30 1016 10 16.0934 0 0
6:15 pm 18:15 Sunny 56 13.4 29 -1.8 35 35 SE 14 22 30 1016 10 16.0934 0 0
6:35 pm 18:35 Sunny 54 12.2 29 -1.5 39 39 SE 10 17 30.03 1017 10 16.0934 0 0
6:55 pm 18:55 Clear 51 10.3 29 -1.5 44 44 ESE 9 15 30.03 1017 10 16.0934 0 0
7:15 pm 19:15 Clear 49 9.3 30 -1.3 48 48 SE 7 11 30.06 1018 10 16.0934 0 0
7:35 pm 19:35 Clear 48 8.9 30 -1.3 49 49 SE 6 9 30.06 1018 10 16.0934 0 0
7:55 pm 19:55 Clear 46 7.5 30 -1.1 55 55 ESE 8 13 30.06 1018 10 16.0934 0 0
8:15 pm 20:15 Clear 45 7 31 -0.6 59 59 ESE 8 13 30.06 1018 10 16.0934 0 0
8:35 pm 20:35 Clear 44 6.8 31 -0.8 59 59 SE 6 9 30.06 1018 10 16.0934 0 0
8:55 pm 20:55 Clear 44 6.6 31 -0.8 60 60 SSE 8 13 30.06 1018 10 16.0934 0 0
9:15 pm 21:15 Clear 45 7 32 -0.2 61 61 SE 9 15 30.06 1018 10 16.0934 0 0
9:35 pm 21:35 Clear 44 6.7 31 -0.4 61 61 SE 9 15 30.06 1018 10 16.0934 0 0
9:55 pm 21:55 Clear 43 5.9 31 -0.5 64 64 SE 9 15 30.09 1019 10 16.0934 0 0
10:15 pm 22:15 Mostly Cloudy 44 6.9 32 0 62 62 SE 9 15 30.06 1018 10 16.0934 0 0
10:35 pm 22:35 Cloudy 46 7.8 32 0.1 59 59 SE 9 15 30.06 1018 10 16.0934 0 0
10:55 pm 22:55 Cloudy 47 8.1 32 0.1 57 57 SE 10 17 30.06 1018 10 16.0934 0 0
11:15 pm 23:15 Mostly Cloudy 47 8.5 33 0.3 57 57 SE 9 15 30.06 1018 10 16.0934 0 0
11:35 pm 23:35 Mostly Cloudy 47 8.5 33 0.5 57 57 SE 10 17 30.06 1018 10 16.0934 0 0
11:55 pm 23:55 Mostly Cloudy 47 8.4 33 0.5 58 58 SE 13 20 30.06 1018 10 16.0934 0 0

Powered by AerisWeather